Regional Weather Roundup
Issued by NWS

Home | Current Version | Previous Version | Graphics & Text | Print | Product List | Glossary On
Versions: 1 2 3 4 5 6 7 8 9 10 11 12 13 14 15 16 17 18 19 20 21 22 23 24 25 26 27 28 29 30 31 32 33 34 35 36 37 38 39 40 41 42 43 44 45 46 47 48 49 50
000
ASUS43 KOAX 271502
RWRNE

WEATHER ROUNDUP FOR NEBRASKA
NATIONAL WEATHER SERVICE OMAHA NE
1000 AM CDT SAT MAY 27 2017

NOTES: SATELLITE DATA IS BEING USED TO AUGMENT CLOUD COVER ABOVE
       12000 FEET.
       "FAIR" INDICATES FEW OR NO CLOUDS BELOW 12,000 FEET WITH NO
       SIGNIFICANT WEATHER AND/OR OBSTRUCTIONS TO VISIBILITY.

  * THESE STATIONS DO NOT REPORT WEATHER SUCH AS RAIN...SNOW OR FOG.

NEZ001>004-019>022-054>056-271600-
NEBRASKA PANHANDLE

CITY           SKY/WX    TMP DP  RH WIND       PRES   REMARKS
SCOTTSBLUFF    CLOUDY    56  44  64 NW12G22   30.06R
ALLIANCE       CLOUDY    52  46  80 N12       30.03F
CHADRON        CLOUDY    55  48  77 W7        30.04S
GORDON         CLOUDY    54  49  83 NW7       30.03S
KIMBALL        CLOUDY    52  46  80 N13       30.08R
SIDNEY         CLOUDY    49  47  93 N13       30.05R
$$

NEZ057>060-069>072-079>082-271600-
SOUTHWEST NEBRASKA

CITY           SKY/WX    TMP DP  RH WIND       PRES   REMARKS
NORTH PLATTE   CLOUDY    65  51  60 E8        29.97R
IMPERIAL       CLOUDY    54  50  86 N13       30.00R
LEXINGTON      SUNNY     64  53  68 NE9       29.93R
MCCOOK         SUNNY     63  55  75 NE10      29.94R
OGALLALA       CLOUDY    55  53  94 N15       30.03R FOG
$$

NEZ005>010-023>029-035>040-094-271600-
NORTH CENTRAL NEBRASKA

CITY           SKY/WX    TMP DP  RH WIND       PRES   REMARKS
VALENTINE      LGT RAIN  53  49  86 NW6       30.02R FOG
AINSWORTH      CLOUDY    55  51  85 N9        30.00R
BROKEN BOW     MOSUNNY   62  52  69 NE10      29.95R
O`NEILL        CLOUDY    57  53  86 N6        29.97S
ORD            PTSUNNY   63  51  65 NE9       29.94R
THEDFORD       CLOUDY    55  51  86 N8        30.01R
$$

NEZ041-046>049-061>064-073>077-083>087-271600-
SOUTH CENTRAL NEBRASKA

CITY           SKY/WX    TMP DP  RH WIND       PRES   REMARKS
GRAND ISLAND   CLOUDY    63  52  67 E14       29.91R
AURORA         CLOUDY    62  51  66 NE10      29.91R
HASTINGS       MOSUNNY   62  52  69 NE14      29.90S
HEBRON         CLOUDY    60  55  85 E5        29.90R
HOLDREGE       SUNNY     62  50  65 NE10      29.91R
KEARNEY *      MOSUNNY   63  50  63 NE14      29.91R
YORK           CLOUDY    61  52  72 NE10      29.90R
$$

NEZ011>018-030>034-042>045-271600-
NORTHEAST NEBRASKA

CITY           SKY/WX    TMP DP  RH WIND       PRES   REMARKS
NORFOLK        PTSUNNY   63  51  65 NE8       29.93R
ALBION         CLOUDY    65  49  57 NE9       29.93R
BLAIR          RAIN      59  54  83 NE6       29.92F
FREMONT        CLOUDY    61  51  69 NE3       29.92R
TEKAMAH        CLOUDY    62  51  67 E6        29.92S
WAYNE          CLOUDY    61  50  67 NE12      29.93S
$$

NEZ050>053-065>068-078-088>093-271600-
SOUTHEAST NEBRASKA

CITY           SKY/WX    TMP DP  RH WIND       PRES   REMARKS
LINCOLN        PTSUNNY   61  54  77 NW10      29.89S
OMAHA EPPLEY   TSTM      58  53  84 NE7       29.92F
BEATRICE       PTSUNNY   60  55  83 SE9       29.88S
FALLS CITY     CLOUDY    60  59  96 S5        29.90R
NEBRASKA CITY  CLOUDY    57  57 100 CALM      29.90R
PLATTSMOUTH    RAIN      58  55  92 N10G17    29.88F
$$

NEZ044-045-051>053-067-271600-
OMAHA AREA

CITY           SKY/WX    TMP DP  RH WIND       PRES   REMARKS
OMAHA EPPLEY   TSTM      58  53  84 NE7       29.92F
BLAIR          RAIN      59  54  83 NE6       29.92F
FREMONT        CLOUDY    61  51  69 NE3       29.92R
MILLARD        RAIN      58  56  92 N3        29.91F
OFFUTT AFB     HVY RAIN  56  53  88 N10       29.89F
PLATTSMOUTH    RAIN      58  55  92 N10G17    29.88F
WAHOO          PTSUNNY   60  52  76 NE7       29.90R
$$




USA.gov is the U.S. government's official web portal to all federal, state and local government web resources and services.